Location: ??
(35.4032°N, 139.3073°E)
Time: 12:18:26
(UTC+00:00)

Cosmos 1470 Rocket - Pass Details

Date: 13 April 2024
Orbit: 601 x 629 km, 82.5° (Epoch: 22 May)

Event Time Altitude Azimuth Distance (km) Brightness Sun altitude
Rises 18:52:17 0° 356° (N) 2,888 7.3 -16.2°
Reaches altitude 10° 18:54:31 10° 358° (N) 1,984 6.4 -15.8°
Maximum altitude 18:58:54 70° 83° (E) 662 3.9 -15.0°
Drops below altitude 10° 19:03:17 10° 167° (SSE) 1,986 6.1 -14.1°
Sets 19:05:31 0° 169° (S) 2,892 6.9 -13.7°
